Regional Weather Roundup
Issued by NWS

Home | Current Version | Previous Version | Graphics & Text | Print | Product List | Glossary On
Versions: 1 2 3 4 5 6 7 8 9 10 11 12 13 14 15 16 17 18 19 20 21 22 23 24 25 26 27 28 29 30 31 32 33 34 35 36 37 38 39 40 41 42 43 44 45 46 47 48 49 50
000
ASUS45 KSLC 282310
RWRUT

UTAH REGIONAL WEATHER ROUNDUP
NATIONAL WEATHER SERVICE SALT LAKE CITY UT
500 PM MDT SUN AUG 28 2016

UTZ001>011-023>025-290000-

NORTHERN UTAH

CITY           SKY/WX    TMP DP  RH WIND       PRES   REMARKS
BRIGHAM CITY     N/A     88  26  11 S5        30.13F
HILL AFB       SUNNY     85  35  16 VRB7      30.17S
LOGAN          SUNNY     88  33  14 SW7       30.13F
OGDEN          SUNNY     87  35  15 VRB5      30.13F
PROVO AIRPORT  MOSUNNY   84  37  18 SW7       30.13F
SALT LAKE CITY MOSUNNY   92  33  12 NW10      30.11F
VERNAL         SUNNY     84  33  16 VRB6      30.15F
WENDOVER       SUNNY     90  32  12 SE10      30.12F
HEBER CITY     SUNNY     86  32  14 CALM      30.17F
WEST JORDAN    SUNNY     87  34  14 NW12      30.15S

$$

UTZ012>022-026-027-290000-

SOUTHERN/CENTRAL UTAH

CITY           SKY/WX    TMP DP  RH WIND       PRES   REMARKS
BLANDING       PTSUNNY   76  44  31 W3        30.29F
BRYCE CANYON   LGT RAIN  62  43  49 CALM      30.37S
CEDAR CITY     SUNNY     83  38  20 MISG      30.20F
MILFORD        SUNNY     89  24   9 N12       30.15F
MOAB/CYNLANDS  MOSUNNY   83  42  23 MISG      30.13F
PRICE          MOSUNNY   81  33  17 S5        30.21F
ST GEORGE      CLEAR     90  48  24 SW7       30.06F

$$

REGIONAL REPORTS     COLORADO/ARIZONA

CITY           SKY/WX    TMP DP  RH WIND       PRES   REMARKS
CRAIG, CO      CLOUDY    81  26  13 S7        30.21F
GRAND JUNCTION CLOUDY    81  46  29 W8        30.17F
RIFLE          CLOUDY    72  46  39 S21       30.24R
MONTROSE       CLOUDY    77  44  30 NW15      30.22F
CORTEZ         CLOUDY    74  48  39 W13       30.23F
PAGE, AZ       SUNNY     84  41  21 NW6       30.13F
GRAND CANYON   SUNNY     74  38  27 E7        30.31F
KINGMAN        SUNNY     90  46  21 MISG      30.08F
FLAGSTAFF      PTSUNNY   70  44  39 NE13      30.31S

$$

REGIONAL REPORTS    NEVADA/IDAHO/WYOMING

CITY           SKY/WX    TMP DP  RH WIND       PRES   REMARKS
LAS VEGAS, NV  MOSUNNY   96  44  16 VRB3      29.97F HX  92
ELY            SUNNY     85  19   9 N7        30.24F
ELKO           SUNNY     88  21   8 SW3       30.16F
POCATELLO, ID  SUNNY     87  32  14 W20       30.14F
BURLEY         SUNNY     83  41  22 W12G17    30.12F
EVANSTON, WY   CLOUDY    81  23  11 NW13G22   30.30F
ROCK SPRINGS   SUNNY     82  22  11 N10       30.24F

$$



USA.gov is the U.S. government's official web portal to all federal, state and local government web resources and services.